GFSWCAN_700_spd_021.txt.gz
Wind_Speed
14 14 14 13 12 12 13 12 11 10 11 12 12 11 11 10 10 9 7 9 12 15 11 12 18 17 8 13 12 12 12 13 12 18 19 17 17 18 23 19 19 18 26 24 24 25 26 18 9 14 16 16 15 13
15 14 14 15 13 12 13 13 12 11 11 12 12 13 11 11 10 9 7 7 10 12 15 10 15 17 22 21 23 12 13 8 14 15 19 16 18 16 11 20 18 12 17 17 14 22 20 13 23 18 20 23 14 13
17 16 15 15 13 13 13 13 13 13 12 12 12 13 12 11 10 9 8 7 7 8 9 10 10 15 17 19 25 15 10 19 16 23 8 14 17 12 17 19 11 20 18 17 7 10 5 11 13 16 20 17 18 14
18 17 15 15 14 13 13 12 12 13 13 12 12 13 13 11 10 9 7 6 5 4 5 10 13 12 15 17 20 25 23 21 19 20 15 13 13 16 18 10 13 4 9 17 19 14 6 6 17 22 20 17 14 16
20 18 16 15 14 14 13 12 12 12 13 12 12 12 12 11 9 8 7 6 5 9 11 5 8 9 11 13 16 23 23 16 10 11 13 14 15 14 16 19 18 15 14 13 15 12 17 13 17 16 17 16 17 17
21 19 17 16 16 14 14 13 12 12 12 12 11 12 12 10 8 7 6 5 5 8 8 1 10 10 7 10 16 16 16 15 15 10 13 16 15 16 14 20 20 19 10 18 8 11 10 12 15 14 13 17 21 22
22 20 18 17 17 15 15 14 12 11 11 12 11 11 11 10 9 9 10 6 6 6 10 2 3 4 7 11 10 9 13 10 10 10 13 13 12 12 19 18 12 19 16 14 26 20 9 9 9 13 14 17 17 20
23 21 19 18 17 15 15 14 12 11 10 11 11 11 11 10 9 8 7 6 6 8 12 4 4 3 9 6 5 7 7 8 10 12 10 12 14 15 17 21 20 12 12 14 15 14 9 13 12 12 14 12 13 22
24 23 21 19 18 16 14 14 12 11 10 11 10 10 10 10 9 8 6 6 7 11 8 6 4 8 7 11 12 8 8 11 8 12 12 12 13 17 13 14 18 18 19 17 14 16 12 10 17 16 21 14 17 18
24 26 23 21 20 17 14 13 13 11 10 10 10 10 10 9 8 6 4 4 6 11 12 9 7 6 7 12 10 10 8 10 10 13 9 17 17 15 14 14 14 16 14 11 11 14 15 16 19 21 19 12 10 16
27 27 24 22 21 18 15 13 13 12 12 12 10 8 9 8 6 5 3 4 4 2 7 7 10 5 7 9 13 8 7 6 5 8 10 9 11 13 14 14 12 13 13 12 12 13 13 14 19 10 19 25 9 10
28 30 25 23 21 18 16 13 14 13 13 12 12 8 6 5 3 2 3 4 5 5 6 9 7 8 7 7 7 7 7 4 6 5 8 13 10 15 15 14 14 9 11 13 15 16 15 17 14 17 10 10 14 14
30 33 26 24 21 18 16 13 14 13 15 13 10 6 5 4 4 4 4 4 4 5 10 9 6 6 9 7 7 7 6 7 7 7 10 12 13 18 19 19 16 14 13 11 14 17 21 16 18 17 16 12 12 15
30 34 28 23 19 17 15 14 15 16 17 11 7 8 5 3 4 5 6 8 6 6 6 5 2 4 4 3 4 3 5 7 6 8 9 7 13 17 18 19 19 21 21 20 15 16 26 20 17 18 21 16 14 18
33 33 25 21 19 18 17 16 17 19 16 7 4 5 5 2 6 9 7 3 3 7 4 4 6 6 5 4 4 4 4 5 5 6 7 12 17 16 14 17 24 26 29 24 20 20 21 25 17 17 21 20 17 17
34 27 23 21 19 18 18 18 19 19 14 8 5 4 7 5 4 6 7 2 3 4 5 5 3 2 5 4 5 6 5 7 8 12 14 19 24 24 25 27 28 22 21 23 19 18 20 22 16 13 14 16 16 18
25 21 20 19 19 19 19 19 21 19 8 5 5 9 2 7 6 8 11 10 4 4 4 4 4 5 3 5 6 7 8 10 11 14 23 26 29 26 22 17 12 13 13 15 19 18 18 19 16 16 16 16 14 14
22 21 20 20 20 20 20 20 20 7 7 6 9 9 9 11 12 12 6 4 3 8 5 7 8 7 5 7 4 6 14 18 22 27 28 23 18 10 7 3 2 2 8 14 14 15 16 16 16 14 15 14 12 11
21 20 21 21 22 25 18 20 11 6 5 6 8 8 7 6 7 5 4 14 10 9 7 7 7 8 10 13 17 16 17 22 26 20 18 15 4 1 2 5 6 7 9 13 12 12 13 14 15 16 15 13 11 12
22 21 21 22 21 19 8 9 10 7 5 6 6 6 7 6 7 5 12 9 10 11 9 10 9 10 11 15 21 22 23 16 15 16 9 3 1 5 9 7 8 9 10 10 10 12 13 16 17 15 14 12 10 10
21 20 20 20 19 14 7 6 5 7 6 5 5 4 4 5 11 14 15 17 11 10 9 9 12 16 18 18 17 13 8 10 8 3 10 7 9 16 13 14 16 17 12 12 11 15 17 17 15 15 17 17 3 7
19 17 17 14 13 9 4 9 10 7 4 6 6 10 8 11 14 11 9 7 6 8 11 12 12 9 8 6 3 3 5 2 14 11 8 10 16 18 19 19 17 7 13 15 17 12 12 12 11 10 10 13 5 12
16 13 10 8 6 5 4 7 6 5 4 8 6 8 8 6 6 3 2 2 2 1 2 3 3 4 4 4 3 4 7 17 16 18 19 15 17 22 17 15 9 12 11 14 15 15 16 16 15 14 14 15 16 15
9 7 4 2 3 2 5 8 7 7 5 4 4 3 3 1 1 1 4 4 8 10 7 6 6 5 5 4 12 15 18 19 18 19 16 15 17 17 20 20 24 23 23 24 24 23 24 23 22 21 19 17 15 12
4 3 3 2 4 5 4 6 5 4 3 4 2 2 2 3 6 8 9 7 6 6 6 9 9 11 20 20 23 23 22 25 28 27 27 25 27 26 24 25 24 21 18 18 20 17 14 16 16 13 12 12 11 10
2 2 4 5 7 6 7 6 5 6 4 2 3 4 9 8 6 8 12 16 12 17 21 24 31 33 32 31 31 29 28 28 27 27 20 17 20 15 15 15 16 17 12 8 11 12 12 10 10 10 9 8 8 8
3 3 5 6 7 8 9 9 7 5 3 2 6 8 7 5 5 17 16 20 20 25 28 27 27 29 29 27 26 24 20 18 17 16 15 12 12 10 9 11 11 12 12 12 12 10 8 8 8 9 9 7 6 5
5 7 9 10 13 10 10 8 5 5 3 4 5 6 5 10 24 26 27 25 24 24 25 25 22 20 19 18 17 14 12 10 12 12 10 10 10 10 11 10 9 7 7 8 11 9 9 8 7 6 5 3 1 0
8 9 11 15 11 9 5 5 4 5 7 9 15 25 27 25 25 23 21 24 22 19 18 14 15 14 12 13 16 13 10 7 7 10 11 10 9 8 8 8 9 9 8 6 5 4 3 3 3 2 1 1 3 4
9 11 12 9 7 11 15 12 12 17 21 26 21 25 23 22 23 24 15 19 16 13 9 9 10 10 9 8 9 10 8 9 7 7 8 9 9 8 7 7 6 5 3 3 2 2 0 0 1 2 4 5 6 7
25 23 21 22 25 19 18 16 17 16 18 19 19 20 18 19 18 13 11 13 12 11 11 10 10 9 7 7 8 8 6 7 7 10 11 7 5 5 4 3 3 2 2 3 3 2 4 3 4 6 6 7 8 9
23 26 21 20 21 20 15 15 16 18 17 16 14 13 12 10 11 13 13 12 9 8 11 9 8 8 7 5 7 9 8 7 7 7 7 5 4 3 2 2 2 2 3 5 5 6 6 6 7 8 8 9 10 10
13 14 14 15 16 14 13 15 14 14 12 12 10 8 6 4 5 7 9 8 7 7 7 8 7 7 7 7 5 4 4 4 4 3 3 2 1 1 2 3 3 4 4 5 6 7 7 8 8 9 10 11 11 12

GFSWCAN_700_spd_024.txt.gz
Wind_Speed
13 13 13 14 13 14 14 13 13 12 11 11 13 12 13 12 11 10 10 12 14 19 9 14 23 23 8 8 10 6 10 9 6 11 14 15 16 18 22 21 15 21 23 27 25 23 30 20 17 8 10 7 6 8
15 14 13 14 13 14 15 14 13 12 11 11 13 12 13 13 11 10 10 10 12 14 18 10 13 19 27 22 22 8 11 11 8 10 12 14 17 13 16 15 22 8 22 21 19 19 17 16 12 17 17 10 15 12
17 17 15 15 15 14 15 14 13 13 12 11 12 12 13 13 12 10 9 8 9 9 11 12 9 14 17 22 26 20 9 22 10 16 7 8 15 14 11 19 11 16 11 11 6 10 9 11 14 16 19 17 15 9
20 18 18 16 16 15 15 14 14 13 12 12 12 12 12 12 11 10 8 7 7 5 4 9 16 19 13 18 23 27 25 23 24 22 10 10 10 7 13 7 9 8 18 17 17 12 17 12 11 14 15 12 5 11
21 20 19 18 16 16 15 15 14 13 12 12 11 12 12 11 10 10 8 7 7 11 15 10 6 8 9 13 17 22 30 30 20 15 15 16 13 14 12 10 10 4 13 11 15 12 10 15 12 10 8 11 14 16
22 21 21 19 17 16 16 15 15 13 12 11 11 11 12 11 10 10 7 9 8 10 11 2 6 14 14 10 13 16 19 24 23 12 11 13 14 14 13 13 12 16 9 10 13 13 13 3 12 11 12 8 11 20
23 22 22 20 18 17 17 15 15 13 12 10 11 11 12 12 11 11 12 7 8 8 10 3 4 5 4 3 5 6 9 9 10 12 13 13 12 12 16 20 11 14 8 6 6 16 7 12 12 10 11 15 18 19
23 23 22 22 20 19 18 15 14 13 11 10 11 11 12 12 11 11 10 9 8 8 11 4 5 5 3 4 5 6 6 7 9 11 12 14 15 14 16 14 21 17 18 20 20 9 8 7 13 17 15 16 14 19
24 24 24 23 21 19 17 15 14 13 11 9 10 10 11 11 10 10 9 9 9 12 9 5 7 6 5 11 10 7 8 10 7 11 13 13 15 18 15 15 16 15 15 16 13 15 19 14 12 19 21 16 13 20
27 24 24 24 22 20 17 14 13 12 10 9 9 8 8 8 8 8 7 7 8 12 13 11 6 8 10 8 10 8 6 10 8 13 10 19 16 15 14 15 14 14 18 12 9 13 11 15 15 19 15 18 18 21
30 28 26 27 23 21 18 15 14 13 12 11 9 7 8 6 6 5 5 3 4 4 7 10 6 7 4 8 13 11 6 8 8 10 12 13 16 8 17 17 18 21 24 25 16 16 15 12 17 13 20 22 22 24
28 29 26 28 24 21 19 16 17 18 19 17 13 8 7 5 4 4 4 4 5 5 5 9 7 6 6 7 11 14 5 4 6 8 7 11 11 15 18 21 22 21 17 14 11 12 14 15 18 25 13 20 18 15
32 28 29 28 25 22 20 17 17 14 15 15 12 8 6 5 6 5 6 6 6 5 9 6 11 6 5 7 7 3 4 7 6 5 8 8 13 16 17 21 22 20 20 19 21 17 12 16 16 19 24 13 12 18
31 29 35 29 25 23 21 19 20 19 19 16 8 8 6 4 4 5 6 5 7 4 8 7 4 8 8 6 5 4 7 7 5 11 8 8 10 11 14 13 17 24 24 22 23 20 22 19 17 20 18 27 13 19
29 32 36 27 25 23 21 20 21 23 20 11 5 6 5 4 3 3 3 5 4 7 5 3 4 4 2 5 3 5 3 5 5 3 4 8 12 14 18 21 23 22 24 27 27 27 26 23 22 26 23 24 26 22
30 38 33 26 24 22 21 21 23 24 18 10 6 6 4 3 4 4 3 4 6 4 5 5 5 4 6 3 3 4 5 3 2 3 9 13 21 23 24 26 28 29 30 33 30 26 27 26 26 22 21 22 25 25
34 33 26 24 23 22 21 22 24 21 8 9 5 6 5 4 5 4 7 10 6 3 5 3 2 5 2 3 5 7 7 10 16 17 20 27 28 31 29 25 21 19 22 19 15 18 20 19 20 20 18 27 26 27
28 26 24 23 22 22 21 20 18 6 6 6 4 6 3 5 10 8 8 10 11 5 7 6 5 4 3 4 5 7 11 14 16 23 28 29 25 24 18 11 7 8 9 9 11 13 14 13 15 14 20 7 9 6
23 23 24 23 24 25 20 20 12 6 8 4 5 7 3 9 4 2 4 5 8 6 7 8 5 7 7 10 16 17 20 25 25 28 24 20 16 8 5 4 2 1 7 11 12 14 14 12 12 10 9 11 9 7
25 23 23 23 21 20 12 7 8 6 5 7 4 10 6 1 6 3 2 8 8 7 10 9 6 14 11 16 19 19 23 26 24 17 12 6 3 4 4 5 5 9 6 7 8 8 10 12 12 13 11 9 7 5
20 22 24 24 18 14 9 6 3 2 0 4 4 7 5 5 6 9 14 14 13 14 9 10 17 23 24 26 26 24 21 13 13 1 1 5 9 10 8 9 9 15 6 6 7 6 14 11 12 13 11 10 6 5
19 20 22 16 12 5 9 4 2 6 5 3 3 3 6 9 12 15 16 14 9 7 13 15 18 20 21 17 12 7 7 2 6 6 8 14 9 12 9 11 9 8 6 4 5 7 11 12 10 9 10 9 7 8
17 12 9 5 3 3 5 5 7 8 4 5 6 7 12 12 10 9 5 4 4 5 6 6 6 4 5 5 5 4 4 12 17 16 10 9 14 6 9 9 9 8 10 11 14 15 14 11 8 8 12 15 14 13
10 12 6 2 2 4 4 8 5 11 7 10 7 6 5 4 4 2 2 1 5 6 6 6 4 2 2 2 8 16 18 20 22 19 20 20 22 27 23 21 19 21 20 18 17 19 20 17 18 18 18 16 14 13
5 4 4 7 8 6 7 6 6 5 3 4 5 3 3 2 3 3 5 4 3 3 4 5 5 6 13 20 21 20 22 22 20 19 23 23 24 22 23 23 23 18 21 18 18 19 21 22 20 13 12 12 12 11
1 2 4 4 5 5 5 6 5 4 5 3 3 3 6 5 4 5 8 8 7 8 7 11 19 22 31 35 33 28 25 24 23 21 23 25 22 15 17 14 13 13 13 9 8 13 13 10 10 10 10 10 11 8
3 3 5 6 6 7 7 8 6 4 2 2 6 7 5 4 4 10 14 17 18 24 31 32 28 29 28 24 23 20 17 21 17 16 15 13 11 12 10 10 9 12 15 8 6 6 7 10 11 12 10 7 6 4
4 7 9 9 9 10 9 5 4 2 3 2 4 4 3 7 17 18 20 27 27 29 26 23 24 21 18 17 15 12 12 15 15 10 9 8 8 8 8 8 9 7 6 9 10 9 9 8 7 6 5 5 5 3
8 11 15 12 10 5 2 2 1 4 4 3 11 18 22 21 24 26 24 25 26 23 20 20 17 21 20 21 18 14 15 6 5 10 9 9 8 9 9 9 10 8 8 6 4 3 2 1 3 4 3 3 4 5
8 10 10 7 9 8 5 6 7 11 15 17 20 24 24 23 26 23 19 17 16 17 18 18 21 13 9 9 8 9 8 6 5 7 7 8 8 7 6 6 5 3 2 3 2 1 2 2 3 4 3 5 6 8
13 16 21 18 16 15 13 17 24 21 19 22 22 23 22 20 17 16 16 11 8 10 11 7 6 6 6 9 9 6 6 7 11 13 11 5 5 6 4 4 3 2 0 2 1 4 8 6 2 6 6 6 8 9
24 16 16 17 16 14 13 15 15 18 17 15 14 18 13 10 10 10 11 9 7 7 12 10 7 7 6 7 12 15 10 8 10 8 11 10 8 6 6 2 3 4 1 2 2 2 3 3 6 7 9 9 9 11
24 24 18 14 13 12 11 11 11 10 10 10 9 8 6 4 4 7 8 6 6 6 6 7 7 7 8 8 7 3 1 3 3 4 3 2 2 0 2 4 4 4 4 5 5 6 6 6 7 8 9 10 12 12

GFSWCAN_700_spd_030.txt.gz
Wind_Speed
15 15 15 15 13 12 10 9 9 9 8 8 8 7 8 9 10 11 11 14 15 13 17 15 8 4 8 10 9 6 11 9 9 14 12 14 7 12 18 18 18 18 16 24 23 21 13 11 7 14 10 7 6 5
16 15 16 16 16 13 12 10 9 9 9 8 8 8 7 9 10 11 12 12 13 12 12 21 16 11 10 7 11 9 13 10 9 10 11 11 14 13 12 14 14 11 18 22 23 14 16 14 12 12 12 16 14 7
19 18 18 18 17 15 13 11 10 9 8 9 8 8 8 8 10 11 11 12 12 9 11 14 13 20 19 18 18 15 9 14 13 12 11 10 10 9 9 9 7 5 7 20 22 14 15 10 8 8 12 9 5 8
23 21 20 19 19 17 15 13 11 10 8 8 8 8 8 8 10 11 12 12 10 8 12 11 14 16 17 21 27 28 21 17 17 14 13 11 12 5 3 5 4 6 8 5 9 16 15 12 9 9 6 14 14 7
24 23 22 21 19 18 17 14 12 10 9 8 8 8 8 9 11 12 12 10 9 9 9 13 10 6 7 13 19 24 30 30 24 20 22 19 17 11 5 4 6 6 12 8 7 7 9 10 10 11 13 5 5 10
24 24 23 22 20 19 17 15 12 10 10 8 8 8 9 9 11 11 10 11 10 9 10 9 6 4 1 1 12 17 19 23 28 33 28 26 25 18 7 3 2 6 7 9 10 8 12 11 9 4 3 6 6 8
25 24 23 22 20 19 18 16 13 10 10 9 9 8 9 10 12 12 10 10 11 10 12 13 4 5 5 10 7 9 13 17 20 25 33 34 32 19 20 19 8 7 10 9 9 8 9 10 11 10 8 10 7 6
26 25 23 21 19 18 18 16 13 11 10 10 9 9 10 11 12 12 11 9 10 10 12 8 9 7 3 3 9 6 7 5 9 15 20 26 29 25 18 23 16 10 8 12 15 14 13 13 13 17 15 16 18 14
25 23 21 20 18 17 17 16 13 11 10 10 9 9 10 10 11 11 10 11 10 11 8 12 10 9 8 7 3 3 1 1 3 5 4 13 22 22 13 18 19 16 16 16 17 18 19 17 20 22 23 22 21 24
27 25 22 19 18 18 17 16 13 12 11 11 10 10 10 11 11 11 10 9 10 12 13 11 8 5 13 13 9 8 8 7 6 6 6 14 19 28 23 12 11 14 17 17 16 17 18 19 19 21 23 24 24 24
28 27 24 20 18 18 18 16 14 13 14 14 14 13 12 12 11 10 8 8 8 6 7 13 10 1 7 14 9 10 8 8 7 11 10 12 15 15 15 22 21 18 21 21 22 22 20 17 19 19 23 25 25 26
28 28 26 22 20 17 18 17 15 14 14 13 13 12 11 11 7 6 8 7 6 5 6 12 9 9 10 7 10 7 8 5 5 8 10 11 12 14 16 17 19 21 24 25 24 23 24 22 22 18 19 23 26 22
27 27 26 24 22 18 19 18 18 18 17 16 14 13 9 8 8 7 9 8 7 10 9 10 11 8 7 6 4 4 6 8 6 4 6 12 15 20 18 19 22 24 25 26 28 29 29 25 25 23 18 22 27 27
27 27 26 24 24 20 21 21 20 22 19 18 12 10 7 6 7 7 9 9 9 11 13 12 12 6 11 5 4 4 5 4 3 5 7 9 16 13 13 16 20 23 27 28 27 25 26 28 28 26 25 25 25 26
28 27 24 23 24 21 24 22 24 24 22 14 8 6 3 2 5 9 8 8 12 12 10 8 9 10 6 6 4 5 3 3 4 6 7 8 10 12 13 15 16 19 23 26 28 29 29 28 28 27 28 30 29 28
25 23 23 22 24 24 27 23 25 26 23 11 7 9 3 4 7 9 6 9 8 8 10 14 6 3 5 3 4 3 2 4 5 7 8 10 11 15 19 24 26 28 29 30 30 29 28 28 27 29 28 30 27 26
32 31 26 22 24 33 25 26 26 26 15 8 11 6 7 6 11 11 8 6 11 12 14 11 6 5 5 5 5 7 8 8 8 8 11 16 22 26 27 26 26 25 26 26 22 21 20 21 21 18 19 23 24 24
27 27 19 30 33 25 25 26 27 12 12 10 9 5 5 10 6 3 8 13 14 12 12 12 8 7 4 5 8 8 10 9 11 15 20 24 29 31 29 23 19 14 12 13 9 5 3 3 3 4 4 5 8 14
22 26 35 28 25 25 27 28 21 9 13 7 7 4 2 5 3 4 5 11 14 11 10 12 7 9 12 11 10 9 12 15 20 24 27 28 26 20 13 7 7 5 4 4 4 6 7 4 4 3 3 7 11 8
37 30 26 25 25 25 17 19 13 12 12 9 4 5 3 2 4 2 5 7 9 10 11 11 14 15 16 17 17 17 18 21 21 24 23 15 8 4 2 4 2 4 4 4 3 5 5 4 4 3 2 2 4 6
27 27 27 26 24 15 13 12 8 9 12 12 6 3 8 6 6 11 9 6 8 9 10 14 17 18 18 19 20 20 20 23 25 16 3 2 3 5 3 6 10 7 4 5 1 5 4 5 5 4 5 6 5 5
32 28 21 17 14 13 10 13 8 5 6 9 5 3 5 9 9 10 11 13 12 14 16 15 15 19 20 18 18 18 16 13 9 1 8 5 4 4 2 4 6 9 6 7 11 11 9 7 5 3 0 5 7 4
21 19 17 16 14 7 5 10 12 7 7 10 9 10 13 14 15 15 15 13 11 11 9 11 11 11 12 10 8 4 4 2 3 15 11 5 2 2 2 2 6 8 13 12 9 6 5 2 6 6 5 4 8 11
18 12 11 7 5 4 8 6 6 10 8 9 11 10 10 11 10 9 8 5 7 5 3 1 2 3 3 3 4 11 11 13 17 14 14 14 13 15 17 15 15 16 14 12 13 15 15 13 12 12 10 9 9 7
11 8 5 7 6 5 6 9 8 12 15 11 11 11 8 3 3 3 4 4 4 5 4 4 3 5 6 17 18 20 21 22 22 20 21 22 21 19 21 21 20 19 18 16 15 14 13 13 13 12 11 10 11 12
4 3 5 7 6 5 7 8 6 7 7 5 4 4 4 3 4 3 5 3 3 3 4 4 9 20 27 20 25 28 23 22 21 21 20 18 17 15 14 12 11 11 10 11 13 11 10 11 13 11 10 12 14 12
5 4 7 8 8 7 4 4 4 5 5 5 4 4 4 3 4 4 6 4 5 9 19 25 26 29 29 28 25 22 19 16 14 14 13 12 12 10 10 10 8 6 8 10 12 13 10 10 8 7 7 6 6 6
4 6 6 7 7 6 6 5 2 1 3 4 5 3 3 3 3 7 6 10 23 32 32 30 30 28 26 23 21 20 20 16 11 9 9 7 5 3 5 4 2 3 6 9 6 9 10 7 5 2 4 9 11 12
7 9 11 10 9 6 3 3 2 4 2 2 4 3 4 9 16 21 32 34 33 33 33 30 27 24 21 19 19 18 16 14 12 10 9 6 5 3 2 3 2 2 3 3 2 2 1 4 6 7 7 8 7 7
10 7 6 5 4 5 2 2 1 4 3 4 11 19 28 30 29 32 35 33 32 28 26 24 21 18 15 11 9 9 9 7 6 3 7 6 6 7 7 6 6 5 2 3 1 1 4 8 10 11 10 8 4 4
10 10 9 4 4 2 3 6 10 16 20 21 22 23 25 26 26 31 27 22 24 24 21 19 16 8 9 10 8 5 2 2 2 1 3 5 8 9 9 6 6 8 8 8 5 5 4 5 3 5 7 8 9 11
13 12 15 18 17 16 18 20 20 24 25 24 23 23 21 23 23 22 19 17 16 14 12 10 10 5 6 3 2 8 10 10 12 13 12 13 10 9 8 10 6 6 9 11 9 7 6 8 8 11 14 14 14 12
18 21 19 21 23 25 24 24 20 19 17 15 14 14 13 10 14 17 18 15 12 7 4 4 5 5 8 8 10 15 17 14 12 11 16 15 12 9 7 7 6 8 9 9 11 11 10 10 11 11 11 12 14 15

GFSWCAN_700_spd_033.txt.gz
Wind_Speed
17 15 14 14 14 13 12 10 9 9 9 8 8 8 9 10 11 11 10 12 11 12 12 16 8 6 6 8 11 10 10 15 15 12 7 6 7 10 11 11 8 10 8 12 12 11 10 19 18 15 7 4 6 8
19 17 16 15 15 15 14 12 10 9 9 9 9 9 9 10 11 12 11 12 11 10 10 14 14 9 7 5 6 7 9 9 10 8 13 10 9 8 9 10 12 8 10 14 9 5 9 9 12 12 11 13 11 9
20 20 19 17 16 17 15 13 12 10 9 10 9 9 10 10 12 12 12 11 9 7 10 12 13 18 16 12 7 5 3 7 10 13 11 12 10 11 13 10 11 7 9 8 12 17 14 15 15 13 11 7 7 10
22 22 21 20 18 17 17 15 13 11 10 10 10 9 11 11 12 12 11 9 8 7 9 7 9 11 15 16 15 12 11 9 11 10 10 11 8 4 5 6 7 10 7 3 10 13 16 12 11 8 7 5 5 8
22 24 24 22 20 19 18 17 15 13 11 11 10 10 11 11 11 11 10 10 9 9 4 10 8 9 12 14 18 20 21 20 18 16 16 15 12 9 5 4 3 2 4 3 5 12 14 13 13 11 13 11 8 8
23 25 26 23 20 20 19 17 16 14 12 11 11 10 11 12 11 10 10 10 10 9 10 6 10 9 8 7 13 18 18 22 28 29 24 23 20 15 8 7 4 2 1 1 2 3 9 10 10 9 8 6 6 8
26 27 25 22 21 20 19 18 17 15 12 11 11 11 11 12 11 11 10 10 10 9 8 8 6 8 8 3 6 10 16 18 21 24 29 32 30 26 24 17 8 4 5 5 2 1 3 3 4 6 7 8 9 7
26 25 24 22 21 19 18 18 17 14 13 12 12 11 11 12 11 12 11 8 9 9 10 7 8 8 5 5 3 3 7 11 14 15 18 21 27 31 29 25 20 11 9 6 5 7 9 9 7 8 9 9 13 14
26 25 24 23 21 19 18 17 16 14 13 12 12 11 11 12 12 12 12 11 10 11 8 10 12 9 7 9 7 5 3 4 2 5 3 11 15 10 14 23 15 15 11 13 10 9 8 8 11 14 15 17 19 20
27 25 23 22 21 20 19 17 15 14 13 13 13 12 13 13 12 11 10 10 11 12 14 11 15 11 8 11 9 5 1 2 3 4 5 8 10 11 12 14 17 22 22 12 11 11 11 12 10 11 15 20 23 26
27 25 25 22 20 20 19 18 16 15 14 15 15 15 12 12 11 10 8 8 8 7 11 13 13 8 5 14 12 8 6 4 4 7 6 4 7 8 8 17 18 11 11 12 14 15 17 17 17 14 14 17 22 25
30 25 25 23 22 20 20 19 18 16 14 14 14 12 11 11 7 7 7 6 6 6 6 11 16 7 5 7 13 7 7 4 4 7 5 9 9 9 8 9 10 14 16 17 18 21 21 22 21 22 23 21 19 20
30 29 26 23 23 22 21 21 19 18 17 15 14 14 9 9 9 7 10 7 6 11 9 13 15 10 7 10 7 7 6 6 5 5 4 9 14 14 11 12 14 16 18 20 21 21 22 24 27 29 27 27 24 22
27 26 27 27 24 22 22 22 21 21 21 17 13 11 7 6 7 6 12 13 13 11 10 10 10 8 8 5 3 3 5 4 4 5 7 7 13 14 15 15 17 18 22 24 26 29 30 31 32 32 31 30 29 27
27 27 25 22 26 24 23 23 22 24 23 15 8 7 5 3 6 13 14 13 10 9 12 10 10 10 8 4 3 4 3 4 4 4 5 7 8 11 12 14 15 18 21 24 28 31 33 33 34 33 34 35 32 30
26 25 26 24 27 24 26 22 23 25 22 11 6 11 6 6 8 13 11 11 8 11 12 10 7 4 8 6 4 5 3 4 4 4 3 4 7 10 13 16 20 24 26 29 31 33 35 37 36 35 33 34 34 33
27 27 31 28 28 23 29 22 24 25 13 7 10 10 8 6 9 9 14 10 9 10 13 10 7 5 5 5 6 7 6 6 3 5 10 14 14 18 21 25 26 25 25 25 27 29 27 26 27 25 25 26 26 26
25 28 27 29 24 28 25 23 24 13 10 10 9 7 5 9 9 9 8 5 7 9 14 14 10 7 5 6 8 8 8 7 9 13 16 18 24 26 27 26 23 20 17 15 14 10 7 4 3 4 5 6 7 8
26 22 22 23 26 28 23 23 17 9 10 9 6 7 9 10 9 7 7 9 11 8 9 11 7 11 14 11 9 9 10 11 15 19 23 25 28 23 19 12 6 4 3 3 1 3 4 2 1 1 1 5 7 11
22 25 32 28 24 21 14 19 11 10 11 9 5 6 6 4 6 6 6 6 11 13 14 14 14 13 12 13 16 16 17 18 21 20 22 19 5 5 6 6 1 2 3 3 3 3 3 3 2 1 1 3 4 8
37 33 27 25 20 14 7 19 8 9 12 10 4 4 6 7 7 8 7 7 8 12 14 14 14 15 16 18 19 19 20 21 21 21 12 2 1 1 2 5 6 2 3 1 2 1 2 3 1 2 3 3 6 7
27 28 27 18 15 13 9 12 8 9 9 8 8 5 6 9 9 8 10 12 12 12 14 16 16 17 16 15 15 15 15 16 11 5 6 3 2 3 2 5 5 4 8 10 11 8 5 4 1 2 2 4 6 4
24 19 12 15 9 5 8 9 9 11 9 9 10 9 9 10 12 12 15 14 12 12 12 12 13 11 11 10 9 8 5 5 3 10 5 3 6 3 3 1 8 12 7 8 6 4 1 3 2 2 3 9 10 6
20 16 12 5 4 3 8 9 10 8 8 8 10 10 11 12 14 15 15 10 8 8 6 4 1 2 2 2 3 3 6 13 12 8 4 8 12 13 14 14 14 12 8 6 9 10 10 10 12 11 11 12 10 11
8 6 3 5 5 6 8 9 8 8 11 12 10 11 13 11 7 5 4 5 4 4 3 5 3 5 4 8 13 16 18 15 18 20 21 20 19 19 17 16 13 12 14 10 9 11 11 11 10 10 13 15 14 13
3 3 4 8 6 5 6 6 8 9 9 10 7 6 6 6 4 4 5 6 7 7 6 7 6 11 18 21 23 24 22 20 21 20 18 16 14 11 10 10 9 9 8 7 8 8 9 10 10 11 12 12 14 13
5 4 8 9 8 6 6 5 4 5 5 4 5 7 4 3 4 4 5 5 3 5 6 15 23 25 29 25 25 22 19 16 15 14 12 12 11 9 8 10 9 12 10 8 9 8 8 7 10 8 6 6 8 9
5 6 8 7 8 6 4 2 2 1 4 5 5 3 2 2 4 5 7 3 11 24 28 29 31 30 25 19 16 15 13 13 11 9 7 6 4 5 5 5 7 8 8 5 6 8 4 6 6 4 5 10 12 12
1 3 6 7 7 5 3 3 3 2 1 1 4 6 6 2 10 18 27 31 33 34 30 27 25 23 21 19 16 14 13 14 14 14 10 7 6 7 6 6 5 4 4 4 3 3 2 2 5 8 10 12 13 7
7 6 5 5 3 4 2 2 2 2 1 3 3 4 16 24 30 30 29 31 30 28 26 23 20 18 15 10 8 11 11 10 9 12 10 12 9 7 6 5 6 5 3 4 6 7 7 8 9 11 12 10 7 6
7 7 6 4 2 2 2 2 3 5 11 20 26 30 33 33 31 29 28 26 25 23 20 16 13 10 6 2 4 7 10 12 10 7 9 10 13 11 10 11 9 6 4 6 9 7 7 6 5 8 9 9 12 13
12 10 14 13 15 18 21 20 20 21 22 24 27 30 30 26 24 22 21 16 15 13 11 9 7 7 4 2 5 7 6 6 12 10 9 9 11 13 15 10 6 7 9 11 12 11 12 11 10 11 13 13 14 14
20 22 21 21 25 27 23 26 24 21 19 16 15 14 14 14 15 15 15 14 13 11 8 4 4 4 6 7 8 10 12 14 15 15 11 12 15 17 15 13 12 12 12 12 13 12 10 10 11 12 13 14 15 15